Terminal Aerodrome Forecast
Issued by NWS Indianapolis, IN

Home | Current Version | Previous Version | Text Only | Print | Product List | Glossary On
Versions: 1 2 3 4 5 6 7 8 9 10 11 12 13 14 15 16 17 18 19 20 21 22 23 24 25 26 27 28
000
FTUS43 KIND 051720
TAFIND
TAF
KIND 051720Z 0518/0624 VRB04KT P6SM SCT030 BKN100
     FM052000 22005KT P6SM VCTS SCT030CB BKN120
     FM060000 11004KT P6SM SCT120
     FM061500 18006KT P6SM SCT040=

USA.gov is the U.S. government's official web portal to all federal, state and local government web resources and services.